{"data":{"norad_id":67769,"intl_designator":"2026-030F","name":"KUIPER-00197","alt_names":[],"object_type":"PAYLOAD","status":"ACTIVE","operator":null,"country":"US","launch_date":"2026-02-12","launch_site_code":"FRGUI","launch_vehicle":null,"mission":null,"orbit_class":"UNKNOWN","rcs_meters":null,"size_class":null,"mass_kg":null,"dimensions":null,"purposes":[],"wikipedia_slug":null,"has_3d_model":false,"image_url":null,"decayed_at":null,"tle_current":{"epoch":"2026-05-25T04:00:03.998880Z","epoch_age_seconds":57307,"freshness":"FRESH","line1":"1 67769U 26030F   26145.16671295 -.00318935  00000+0 -22269-1 0  9993","line2":"2 67769  51.9040 210.9938 0003162 357.1895  74.8059 15.06534576  4793","mean_motion":15.06534576,"eccentricity":0.0003162,"inclination_deg":51.904,"raan_deg":210.9938,"arg_perigee_deg":357.1895,"mean_anomaly_deg":74.8059,"bstar":-0.022269,"rev_number":479,"period_min":95.583601129378,"perigee_km":544.60946777925,"apogee_km":548.9887973895,"semimajor_km":6924.9361325844,"source":"CELESTRAK","updated_at":"2026-05-25T13:38:07.255204Z"}}}